922  
SXUS52 KJAX 161213  
OSOJAX  
OTHER SURFACE OBSERVATIONS  
NATIONAL WEATHER SERVICE JACKSONVILLE FL  
800 AM EDT SAT OCT 16 2021  
 
FLZ020>025-030>033-035>038-040-161300-   
..FLORIDA
 
 
 
CITY SKY/WX TMP DP RH WIND PRES REMARKS  
CECIL FIELD FOG 63 63 100 CALM 29.97S VSB 1  
HERLONG FIELD NOT AVBL  
FERNANDINA BCH NOT AVBL  
LAKE CITY FAIR 64 64 100 CALM 29.98R  
JUNIPER SPGS NOT AVBL  
BUNNELL NOT AVBL  
KEYSTONE HGTS FOG 64 64 100 CALM 29.97S VSB 1/4  

 
 
GAZ132>136-149>154-162>166-161300-   
..GEORGIA
 
 
 
CITY SKY/WX TMP DP RH WIND PRES REMARKS  
JESUP FAIR 66 63 88 CALM 29.98R FOG  
HOMERVILLE FAIR 65 64 96 CALM 29.97S  
SWAINSBORO FAIR 64 63 94 CALM 29.94S  
CORDELE CLOUDY 69 67 94 SW3 29.96R FOG  
EASTMAN FAIR 66 65 97 CALM 29.95R  

 
 
PLEASE NOTE: THESE OBSERVATIONS ARE NOT QUALITY CONTROLLED AND MAY  
NOT BE AVAILABLE AT ALL TIMES.  

 
 
 
CLICK HERE TO GO TO PREVIOUS BULLETINS.

The Nexlab FL Page
The Nexlab GA Page Main Text Page